| time (UTC) | temp F | wind direction | speed MPH | gust MPH | rain 1hr in | rain 24hr in | rain mn in | humidity % | barometer mb |
| 20260507025003 | 57 | 241 | 4.0 | 8.0 | 0.00 | 0.00 | 0.00 | 76 | 1020.0 |
| 20260507024003 | 57 | 226 | 1.0 | 10.0 | 0.00 | 0.00 | 0.00 | 75 | 1020.0 |
| 20260507023003 | 58 | 233 | 3.0 | 7.0 | 0.00 | 0.00 | 0.00 | 74 | 1020.0 |
| 20260507022004 | 58 | 233 | 3.0 | 7.0 | 0.00 | 0.00 | 0.00 | 74 | 1020.0 |
| 20260507021004 | 58 | 194 | 1.0 | 7.0 | 0.00 | 0.00 | 0.00 | 73 | 1020.0 |
| 20260507020003 | 59 | 235 | 4.0 | 9.0 | 0.00 | 0.00 | 0.00 | 72 | 1020.0 |
| 20260507015003 | 59 | 235 | 4.0 | 9.0 | 0.00 | 0.00 | 0.00 | 72 | 1020.0 |
| 20260507014003 | 60 | 189 | 4.0 | 12.0 | 0.00 | 0.00 | 0.00 | 71 | 1020.0 |
| 20260507013004 | 60 | 208 | 1.0 | 8.0 | 0.00 | 0.00 | 0.00 | 71 | 1020.0 |
| 20260507012003 | 60 | 208 | 1.0 | 8.0 | 0.00 | 0.00 | 0.00 | 71 | 1020.0 |
| 20260507011008 | 60 | 211 | 1.0 | 8.0 | 0.00 | 0.00 | 0.00 | 71 | 1020.0 |
| 20260507010004 | 61 | 207 | 3.0 | 12.0 | 0.00 | 0.00 | 0.00 | 70 | 1020.0 |
| 20260507005004 | 61 | 207 | 3.0 | 12.0 | 0.00 | 0.00 | 0.00 | 70 | 1020.0 |
| 20260507004003 | 61 | 241 | 9.0 | 9.0 | 0.00 | 0.00 | 0.00 | 71 | 1020.0 |
| 20260507003004 | 60 | 230 | 6.0 | 7.0 | 0.00 | 0.00 | 0.00 | 72 | 1020.0 |
| 20260507002004 | 60 | 230 | 6.0 | 7.0 | 0.00 | 0.00 | 0.00 | 72 | 1020.0 |
| 20260507001004 | 60 | 237 | 5.0 | 9.0 | 0.00 | 0.00 | 0.00 | 71 | 1020.0 |
| 20260507000004 | 61 | 206 | 7.0 | 13.0 | 0.00 | 0.00 | 0.00 | 69 | 1020.0 |
| 20260506235003 | 61 | 206 | 7.0 | 13.0 | 0.00 | 0.00 | 0.00 | 69 | 1020.0 |
| 20260506234003 | 62 | 217 | 4.0 | 14.0 | 0.00 | 0.00 | 0.00 | 69 | 1020.0 |
| 20260506233009 | 62 | 227 | 4.0 | 8.0 | 0.00 | 0.00 | 0.00 | 70 | 1020.0 |
| 20260506232004 | 62 | 227 | 4.0 | 8.0 | 0.00 | 0.00 | 0.00 | 70 | 1020.0 |
| 20260506231003 | 61 | 236 | 5.0 | 8.0 | 0.00 | 0.00 | 0.00 | 71 | 1020.0 |
| 20260506230005 | 61 | 222 | 4.0 | 10.0 | 0.00 | 0.00 | 0.00 | 71 | 1020.0 |
| 20260506225004 | 61 | 222 | 4.0 | 10.0 | 0.00 | 0.00 | 0.00 | 71 | 1020.0 |
| 20260506224003 | 61 | 242 | 3.0 | 9.0 | 0.00 | 0.00 | 0.00 | 72 | 1020.3 |
| 20260506223003 | 61 | 212 | 3.0 | 9.0 | 0.00 | 0.00 | 0.00 | 72 | 1020.3 |
| 20260506222003 | 61 | 212 | 3.0 | 9.0 | 0.00 | 0.00 | 0.00 | 72 | 1020.3 |
| 20260506221004 | 61 | 217 | 3.0 | 7.0 | 0.00 | 0.00 | 0.00 | 72 | 1020.3 |
| 20260506220004 | 61 | 225 | 5.0 | 8.0 | 0.00 | 0.00 | 0.00 | 70 | 1020.3 |
| 20260506215004 | 61 | 225 | 5.0 | 8.0 | 0.00 | 0.00 | 0.00 | 70 | 1020.3 |
| 20260506214003 | 61 | 224 | 6.0 | 9.0 | 0.00 | 0.00 | 0.00 | 71 | 1020.3 |
| 20260506213004 | 62 | 215 | 4.0 | 8.0 | 0.00 | 0.00 | 0.00 | 70 | 1020.3 |
| 20260506212003 | 62 | 215 | 4.0 | 8.0 | 0.00 | 0.00 | 0.00 | 70 | 1020.3 |
| 20260506211004 | 63 | 201 | 4.0 | 8.0 | 0.00 | 0.00 | 0.00 | 69 | 1020.3 |
| 20260506210005 | 63 | 125 | 4.0 | 8.0 | 0.00 | 0.00 | 0.00 | 69 | 1020.0 |
| 20260506205004 | 63 | 125 | 4.0 | 8.0 | 0.00 | 0.00 | 0.00 | 69 | 1020.0 |
| 20260506204004 | 61 | 250 | 2.0 | 7.0 | 0.00 | 0.00 | 0.00 | 73 | 1020.3 |
| 20260506203003 | 61 | 214 | 3.0 | 9.0 | 0.00 | 0.00 | 0.00 | 72 | 1020.3 |
| 20260506202003 | 61 | 214 | 3.0 | 9.0 | 0.00 | 0.00 | 0.00 | 72 | 1020.3 |
| 20260506201003 | 59 | 118 | 0.0 | 9.0 | 0.00 | 0.00 | 0.00 | 73 | 1020.0 |
| 20260506200004 | 59 | 225 | 4.0 | 8.0 | 0.00 | 0.00 | 0.00 | 73 | 1020.3 |
| 20260506195004 | 59 | 225 | 4.0 | 8.0 | 0.00 | 0.00 | 0.00 | 73 | 1020.3 |
| 20260506194004 | 60 | 216 | 1.0 | 6.0 | 0.00 | 0.00 | 0.00 | 74 | 1020.0 |
| 20260506193003 | 60 | 217 | 2.0 | 7.0 | 0.00 | 0.00 | 0.00 | 74 | 1020.0 |
| 20260506192003 | 60 | 217 | 2.0 | 7.0 | 0.00 | 0.00 | 0.00 | 74 | 1020.0 |
| 20260506191003 | 59 | 239 | 5.0 | 10.0 | 0.00 | 0.00 | 0.00 | 74 | 1020.0 |
| 20260506190004 | 59 | 222 | 1.0 | 7.0 | 0.00 | 0.00 | 0.00 | 74 | 1020.0 |
| 20260506185003 | 59 | 222 | 1.0 | 7.0 | 0.00 | 0.00 | 0.00 | 74 | 1020.0 |
| 20260506184003 | 59 | 235 | 4.0 | 6.0 | 0.00 | 0.00 | 0.00 | 73 | 1020.0 |
| 20260506183005 | 58 | 223 | 4.0 | 9.0 | 0.00 | 0.00 | 0.00 | 73 | 1020.0 |
| 20260506182003 | 58 | 223 | 4.0 | 9.0 | 0.00 | 0.00 | 0.00 | 73 | 1020.0 |
| 20260506181003 | 58 | 167 | 0.0 | 5.0 | 0.00 | 0.00 | 0.00 | 74 | 1020.0 |
| 20260506180005 | 58 | 238 | 2.0 | 5.0 | 0.00 | 0.00 | 0.00 | 76 | 1020.0 |
| 20260506175003 | 58 | 238 | 2.0 | 5.0 | 0.00 | 0.00 | 0.00 | 76 | 1020.0 |
| 20260506174004 | 57 | 221 | 3.0 | 7.0 | 0.00 | 0.00 | 0.00 | 77 | 1020.0 |
| 20260506173004 | 57 | 203 | 2.0 | 5.0 | 0.00 | 0.00 | 0.00 | 77 | 1019.6 |
| 20260506172004 | 57 | 203 | 2.0 | 5.0 | 0.00 | 0.00 | 0.00 | 77 | 1019.6 |
| 20260506171003 | 57 | 215 | 3.0 | 4.0 | 0.00 | 0.00 | 0.00 | 77 | 1019.6 |
| 20260506170004 | 57 | 229 | 0.0 | 7.0 | 0.00 | 0.00 | 0.00 | 78 | 1019.6 |
| 20260506165005 | 57 | 229 | 0.0 | 7.0 | 0.00 | 0.00 | 0.00 | 78 | 1019.6 |
| 20260506164003 | 56 | 225 | 0.0 | 5.0 | 0.00 | 0.00 | 0.00 | 78 | 1019.6 |
| 20260506163004 | 56 | 235 | 3.0 | 4.0 | 0.00 | 0.00 | 0.00 | 78 | 1019.6 |
| 20260506162004 | 56 | 235 | 3.0 | 4.0 | 0.00 | 0.00 | 0.00 | 78 | 1019.6 |
| 20260506161003 | 56 | 210 | 1.0 | 6.0 | 0.00 | 0.00 | 0.00 | 79 | 1019.6 |
| 20260506160004 | 56 | 233 | 3.0 | 5.0 | 0.00 | 0.00 | 0.00 | 79 | 1019.3 |
| 20260506155003 | 56 | 233 | 3.0 | 5.0 | 0.00 | 0.00 | 0.00 | 79 | 1019.3 |
| 20260506154003 | 56 | 126 | 1.0 | 3.0 | 0.00 | 0.00 | 0.00 | 79 | 1019.3 |
| 20260506153004 | 56 | 213 | 1.0 | 4.0 | 0.00 | 0.00 | 0.00 | 80 | 1019.3 |
| 20260506152004 | 56 | 213 | 1.0 | 4.0 | 0.00 | 0.00 | 0.00 | 80 | 1019.3 |
| 20260506151004 | 55 | 221 | 2.0 | 3.0 | 0.00 | 0.00 | 0.00 | 80 | 1019.0 |
| 20260506150004 | 55 | 229 | 1.0 | 3.0 | 0.00 | 0.00 | 0.00 | 82 | 1018.6 |
| 20260506145003 | 55 | 229 | 1.0 | 3.0 | 0.00 | 0.00 | 0.00 | 82 | 1018.6 |
| 20260506144003 | 54 | 236 | 1.0 | 3.0 | 0.00 | 0.00 | 0.00 | 82 | 1019.0 |
| 20260506143004 | 54 | 219 | 2.0 | 3.0 | 0.00 | 0.00 | 0.00 | 83 | 1019.0 |
| 20260506142004 | 54 | 219 | 2.0 | 3.0 | 0.00 | 0.00 | 0.00 | 83 | 1019.0 |
| 20260506141004 | 54 | 221 | 0.0 | 4.0 | 0.00 | 0.00 | 0.00 | 83 | 1019.3 |
| 20260506140004 | 54 | 223 | 0.0 | 4.0 | 0.00 | 0.00 | 0.00 | 84 | 1019.0 |
| 20260506135003 | 54 | 223 | 0.0 | 4.0 | 0.00 | 0.00 | 0.00 | 84 | 1019.0 |
| 20260506134003 | 54 | 232 | 1.0 | 2.0 | 0.00 | 0.00 | 0.00 | 84 | 1018.6 |
| 20260506133004 | 54 | 250 | 0.0 | 3.0 | 0.00 | 0.00 | 0.00 | 84 | 1018.3 |
| 20260506132003 | 54 | 250 | 0.0 | 3.0 | 0.00 | 0.00 | 0.00 | 84 | 1018.3 |
| 20260506131004 | 54 | 231 | 3.0 | 4.0 | 0.00 | 0.00 | 0.00 | 83 | 1018.6 |
| 20260506130006 | 54 | 227 | 1.0 | 3.0 | 0.00 | 0.00 | 0.00 | 84 | 1018.3 |
| 20260506125003 | 54 | 227 | 1.0 | 3.0 | 0.00 | 0.00 | 0.00 | 84 | 1018.3 |
| 20260506124003 | 54 | 327 | 0.0 | 2.0 | 0.00 | 0.00 | 0.00 | 83 | 1018.3 |
| 20260506123004 | 54 | 235 | 0.0 | 2.0 | 0.00 | 0.00 | 0.00 | 84 | 1017.9 |
| 20260506122004 | 54 | 235 | 0.0 | 2.0 | 0.00 | 0.00 | 0.00 | 84 | 1017.9 |
| 20260506121003 | 54 | 220 | 0.0 | 2.0 | 0.00 | 0.00 | 0.00 | 84 | 1017.9 |
| 20260506120005 | 54 | 200 | 1.0 | 3.0 | 0.00 | 0.00 | 0.00 | 84 | 1017.9 |
| 20260506115004 | 54 | 200 | 1.0 | 3.0 | 0.00 | 0.00 | 0.00 | 84 | 1017.9 |
| 20260506114004 | 54 | 245 | 0.0 | 2.0 | 0.00 | 0.00 | 0.00 | 83 | 1017.9 |
| 20260506112003 | 54 | 225 | 0.0 | 2.0 | 0.00 | 0.00 | 0.00 | 84 | 1017.9 |
| 20260506111003 | 55 | 198 | 2.0 | 2.0 | 0.00 | 0.00 | 0.00 | 84 | 1017.6 |
| 20260506110004 | 55 | 217 | 1.0 | 2.0 | 0.00 | 0.00 | 0.00 | 84 | 1017.6 |
| 20260506105003 | 55 | 217 | 1.0 | 2.0 | 0.00 | 0.00 | 0.00 | 84 | 1017.6 |
| 20260506104005 | 55 | 217 | 0.0 | 3.0 | 0.00 | 0.00 | 0.00 | 84 | 1017.6 |
| 20260506103004 | 55 | 203 | 2.0 | 4.0 | 0.00 | 0.00 | 0.00 | 84 | 1017.3 |
| 20260506102003 | 55 | 203 | 2.0 | 4.0 | 0.00 | 0.00 | 0.00 | 84 | 1017.3 |
| 20260506101003 | 55 | 219 | 0.0 | 2.0 | 0.00 | 0.00 | 0.00 | 83 | 1017.3 |
| 20260506100004 | 55 | 215 | 1.0 | 3.0 | 0.00 | 0.00 | 0.00 | 83 | 1017.3 |
| 20260506095003 | 55 | 215 | 1.0 | 3.0 | 0.00 | 0.00 | 0.00 | 83 | 1017.3 |
| 20260506094004 | 55 | 229 | 1.0 | 3.0 | 0.00 | 0.00 | 0.00 | 84 | 1016.9 |
| 20260506093004 | 55 | 142 | 1.0 | 2.0 | 0.00 | 0.00 | 0.00 | 84 | 1016.9 |
| 20260506092003 | 55 | 142 | 1.0 | 2.0 | 0.00 | 0.00 | 0.00 | 84 | 1016.9 |
| 20260506091003 | 55 | 223 | 0.0 | 1.0 | 0.00 | 0.00 | 0.00 | 84 | 1016.9 |
| 20260506090004 | 55 | 223 | 0.0 | 3.0 | 0.00 | 0.00 | 0.00 | 84 | 1016.9 |
| 20260506085003 | 55 | 223 | 0.0 | 3.0 | 0.00 | 0.00 | 0.00 | 84 | 1016.9 |
| 20260506084004 | 55 | 216 | 0.0 | 3.0 | 0.00 | 0.00 | 0.00 | 84 | 1016.9 |
| 20260506083004 | 55 | 232 | 0.0 | 3.0 | 0.00 | 0.00 | 0.00 | 84 | 1016.6 |
| 20260506082003 | 55 | 232 | 0.0 | 3.0 | 0.00 | 0.00 | 0.00 | 84 | 1016.6 |
| 20260506081003 | 55 | 232 | 0.0 | 4.0 | 0.00 | 0.00 | 0.00 | 84 | 1016.6 |
| 20260506073004 | 55 | 210 | 0.0 | 2.0 | 0.00 | 0.00 | 0.00 | 84 | 1016.3 |
| 20260506072004 | 55 | 210 | 0.0 | 2.0 | 0.00 | 0.00 | 0.00 | 84 | 1016.3 |
| 20260506071004 | 56 | 199 | 1.0 | 2.0 | 0.00 | 0.00 | 0.00 | 85 | 1016.3 |
| 20260506062003 | 55 | 230 | 0.0 | 2.0 | 0.00 | 0.00 | 0.00 | 84 | 1015.9 |
| 20260506061004 | 55 | 336 | 0.0 | 3.0 | 0.00 | 0.00 | 0.00 | 84 | 1015.9 |
| 20260506051003 | 55 | 231 | 1.0 | 2.0 | 0.00 | 0.00 | 0.00 | 84 | 1015.6 |
| 20260506045004 | 55 | 9 | 0.0 | 2.0 | 0.00 | 0.00 | 0.00 | 84 | 1015.6 |
| 20260506044003 | 55 | 203 | 0.0 | 1.0 | 0.00 | 0.00 | 0.00 | 84 | 1015.6 |
| 20260506043003 | 55 | 225 | 0.0 | 2.0 | 0.00 | 0.00 | 0.00 | 83 | 1015.2 |
| 20260506042003 | 55 | 225 | 0.0 | 2.0 | 0.00 | 0.00 | 0.00 | 83 | 1015.2 |
| 20260506041003 | 56 | 109 | 0.0 | 1.0 | 0.00 | 0.00 | 0.00 | 83 | 1014.9 |
| 20260506040004 | 57 | 188 | 0.0 | 1.0 | 0.00 | 0.00 | 0.00 | 81 | 1014.9 |
| 20260506035004 | 57 | 188 | 0.0 | 1.0 | 0.00 | 0.00 | 0.00 | 81 | 1014.9 |
| 20260506034004 | 57 | 190 | 1.0 | 2.0 | 0.00 | 0.00 | 0.00 | 80 | 1014.6 |
| 20260506033004 | 58 | 215 | 2.0 | 6.0 | 0.00 | 0.00 | 0.00 | 78 | 1014.6 |
| 20260506032004 | 58 | 215 | 2.0 | 6.0 | 0.00 | 0.00 | 0.00 | 78 | 1014.6 |
| 20260506031003 | 59 | 221 | 0.0 | 3.0 | 0.00 | 0.00 | 0.00 | 78 | 1014.2 |
| 20260506030004 | 60 | 232 | 1.0 | 3.0 | 0.00 | 0.00 | 0.00 | 77 | 1014.2 |